Home   Weather   Solothurn   Past weeks

Flag for Switzerland Past Weather in Solothurn, Solothurn, Switzerland — Yesterday and Last 2 Weeks

Now
19 °F

Cold.


Feels Like: 10 °F
Forecast: 7 / 21 °F
Wind: 7 mph from Northeast

Location: Grenchen

Current Time: Jan 24, 2017 at 4:14:10 am

Latest Report: Jan 24, 2017 at 3:00 am


Visibility: N/A

Pressure: 30.36 "Hg

Humidity: 95%

Dew Point: 18 °F

Location of SolothurnLocation

Past Weather in Solothurn — Graph

°F

Solothurn Temperature Yesterday

Maximum temperature yesterday: 21 °F (at 4:00 pm)
Minimum temperature yesterday: 16 °F (at 9:00 pm)
Average temperature yesterday: 19 °F

High & Low Weather Summary for the Past Weeks

 TemperatureHumidityPressure
High44 °F (Jan 13, 1:00 am)100% (Jan 11, 12:00 am)30.57 "Hg (Jan 11, 12:00 am)
Low13 °F (Jan 16, 12:00 am)61% (Jan 13, 2:00 am)29.59 "Hg (Jan 13, 1:00 am)
Average26 °F88%30.27 "Hg
* Reported Jan 9 2:00 am — Jan 24 2:00 am, Solothurn, Weather by CustomWeather, © 2017

Note: Actual official high and low records may vary slightly from our data, if they occured in-between our weather recording intervals... More about our weather records

Advertising

Solothurn Weather History for the Previous 24 Hours

Scroll right to see more
 ConditionsComfort  
Time TempWeatherWind HumidityBarometerVisibility
2:00 am
Tue, Jan 24
19 °FCold.7 mph95%30.36 "HgN/A
1:00 am19 °FCold.5 mph96%30.35 "HgN/A
12:00 am19 °FCold.7 mph95%30.34 "HgN/A
11:00 pm
Mon, Jan 23
19 °FCold.7 mph96%30.33 "HgN/A
10:00 pm18 °FCold.7 mph95%30.34 "HgN/A
9:00 pm16 °FCold.6 mph95%30.34 "HgN/A
8:00 pm18 °FCold.3 mph96%30.34 "HgN/A
7:00 pm16 °FCold.3 mph96%30.34 "HgN/A
6:00 pm17 °FCold.3 mph95%30.33 "HgN/A
5:00 pm20 °FCold.2 mph95%30.31 "HgN/A
4:00 pm21 °FCold.6 mph96%30.31 "HgN/A
3:00 pm21 °FCold.5 mph95%30.30 "HgN/A
2:00 pm20 °FCold.3 mph95%30.31 "HgN/A
1:00 pm20 °FCold.2 mph95%30.34 "HgN/A
12:00 pm19 °FCold.3 mph96%30.36 "HgN/A
11:00 am19 °FCold.3 mph95%30.37 "HgN/A
10:00 am19 °FCold.3 mph95%30.36 "HgN/A
9:00 am20 °FCold.2 mph96%30.35 "HgN/A
8:00 am19 °FCold.2 mph96%30.34 "HgN/A
7:00 am19 °FCold.1 mph96%30.35 "HgN/A
6:00 am19 °FCold.1 mph96%30.35 "HgN/A
5:00 am18 °FCold.2 mph95%30.35 "HgN/A
4:00 am19 °FCold.1 mph96%30.36 "HgN/A
Weather by CustomWeather, © 2017

See weather overviewHow to use our weather pages